Regional Weather Roundup
Issued by NWS Charleston, SC

Home | Current Version | Previous Version | Text Only | Print | Product List | Glossary On
Versions: 1 2 3 4 5 6 7 8 9 10 11 12 13 14 15 16 17 18 19 20 21 22 23 24 25 26 27 28 29 30 31 32 33 34 35 36 37 38 39 40 41 42 43 44 45 46 47 48 49 50
000
ASUS42 KCHS 281226
RWRCHS

REGIONAL WEATHER ROUNDUP
NATIONAL WEATHER SERVICE CHARLESTON SC
800 AM EDT SAT MAR 28 2015

NOTE: "FAIR" INDICATES FEW OR NO CLOUDS BELOW 12,000 FEET WITH NO
SIGNIFICANT WEATHER AND/OR OBSTRUCTIONS TO VISIBILITY.

NOT ALL STATIONS ARE QUALITY CONTROLLED BY THE NATIONAL
WEATHER SERVICE. USE DATA WITH CAUTION...ESPECIALLY
DEWPOINT OBSERVATIONS.

SCZ027-030-031-034>040-042>050-281300-
...SOUTHEAST SOUTH CAROLINA...

CITY           SKY/WX    TMP DP  RH WIND       PRES   REMARKS
N CHARLESTON   PTCLDY    44  41  89 W6        30.01R
6HR MIN TEMP:  42; 6HR MAX TEMP:  47;

WATERFRONT PRK NOT AVBL
MOUNT PLEASANT FAIR      45  43  93 W6        30.03R
PINOPOLIS        N/A     48  43  81 W12       29.91R
MONCKS CORNER  FAIR      45  39  81 NW5       30.02R
SUMMERVILLE    FAIR      45  43  93 W5        30.04R
BEAUFORT MCAS  CLEAR     45  37  73 NW9       30.05R
6HR MIN TEMP:  45; 6HR MAX TEMP:  49;

BEAUFORT ARPT  FAIR      46  39  76 NW8       30.05R
HILTON HEAD IS CLEAR     46  36  66 NW8       30.05
WALTERBORO     SUNNY     43  41  93 W7        30.05R
ALLENDALE      FAIR      43  34  70 CALM      30.06R

...SOUTHERN MIDLANDS AND PEE DEE...

CITY           SKY/WX    TMP DP  RH WIND       PRES   REMARKS
GEORGETOWN     NOT AVBL
KINGSTREE      NOT AVBL
ORANGEBURG     PTCLDY    41  34  76 NW6       30.03R
6HR MIN TEMP:  41; 6HR MAX TEMP:  47;

BARNWELL       FAIR      41  36  81 W5        30.07R
AIKEN          FAIR      36  32  87 W6        30.08R WCI  31
MANNING        FLURRIES  41  36  81 CALM      30.02R
COLUMBIA       PTCLDY    43  26  51 NW9       30.03R
6HR MIN TEMP:  40; 6HR MAX TEMP:  47; 6HR PCP: TRACE;

SUMTER         CLEAR     40  35  83 NW6       30.00R WCI  36
6HR MIN TEMP:  38; 6HR MAX TEMP:  45; 6HR PCP: TRACE;

FLORENCE       MOCLDY    42  36  79 N6        30.00R
6HR MIN TEMP:  42; 6HR MAX TEMP:  47; 6HR PCP: TRACE;

MYRTLE BEACH   MOCLDY    46  41  81 NW7       29.99R
N MYRTLE BEACH MOCLDY    43  40  89 N7        29.99R
6HR MIN TEMP:  42; 6HR MAX TEMP:  46; 6HR PCP:  0.13;


$$

GAZ063-065-086>088-099>101-113>116-118-119-134>141-150-281300-
...SOUTHEAST GEORGIA...

CITY           SKY/WX    TMP DP  RH WIND       PRES   REMARKS
SAVANNAH ARPT  PTCLDY    44  33  65 W8        30.06R
6HR MIN TEMP:  41; 6HR MAX TEMP:  51;

HUNTER AAF     CLEAR     42  37  80 W9        30.04R
6HR MIN TEMP:  39; 6HR MAX TEMP:  50;

FORT STEWART   CLEAR     42  34  72 W6        30.06R
6HR MIN TEMP:  42; 6HR MAX TEMP:  51;

STATESBORO     CLEAR     43  32  65 NW8G18    30.08R
SYLVANIA       SUNNY     43  33  69 NW8       30.08R
CLAXTON        FAIR      43  36  75 CALM      30.09R

...CSRA...CENTRAL AND FAR SOUTHEAST GEORGIA...

CITY           SKY/WX    TMP DP  RH WIND       PRES   REMARKS
THOMSON        CLEAR     40  32  72 NW5       30.11R WCI  37
AUGUSTA-BUSH   CLEAR     40  28  62 NW9       30.06R WCI  34
6HR MIN TEMP:  39; 6HR MAX TEMP:  47;

AUGUSTA-DANIEL CLEAR     41  28  60 NW10      30.05R
SWAINSBORO       N/A     41  30  65 CALM      30.10R
VIDALIA        CLEAR     41  36  81 W3        30.10R
EASTMAN        FAIR      40  37  86 NW3       30.14R
HAZLEHURST     FAIR      41  37  87 CALM      30.10R
ALMA           CLEAR     42  34  73 NW6       30.10R
6HR MIN TEMP:  41; 6HR MAX TEMP:  51;

WAYCROSS       CLEAR     46  40  79 W5        30.12R
JESUP          FAIR      45  37  76 NW6       30.10R
BAXLEY         FAIR      43  36  75 NW6       30.10R
BRUNSWICK      CLEAR     45  36  70 W7        30.10R
SAINT SIMONS   CLEAR     46  34  62 NW6       30.08R
6HR MIN TEMP:  46; 6HR MAX TEMP:  52;


$$

SCZ027-028-034-036>038-045-046-048>050-GAZ119-141-281300-
...LAKE AND SUPPLEMENTAL COASTAL OBSERVATIONS...

STATION/POSITION TIME  TEMP    WIND        PRES    WAVE   SWELL
                       AIR SEA DIR/SP/G            HT/PER HT/PER/DIR
                 (UTC) (F)     (DEG/KT/KT) (MB)    (FT/S) (FT/S/D)
UPR LAKE MARION  NOT AVBL
WINYAH BAY       1100   46     290/  6     1013.0R
LAKE MURRAY      1200   40     300/  4/  8 1016.6R
ACE BASIN NERRS  NOT AVBL
FORT PULASKI     1200   47 61  290/ 14/ 18 1018.3R
SAPELO ISLAND    1200   46     290/  9     1018.0R

$$

ANZ835-935-AMZ111-154-330-350-352-354-370-450-454-472-281300-
...C-MAN AND BUOY OBSERVATIONS...

STATION/POSITION TIME  TEMP    WIND        PRES    WAVE   SWELL
                       AIR SEA DIR/SP/G            HT/PER HT/PER/DIR
                 (UTC) (F)     (DEG/KT/KT) (MB)    (FT/S) (FT/S/D)
BUOY 41004       1150   52 68  310/ 17/ 23 1014.8R   5/ 7   3/ 7
BUOY 41008       1150   50 60  320/ 17/ 23 1017.1R   3/ 4   2/ 60/ 9
FOLLY BEACH CMAN 1200   45     290/  5/  7 1016.3R
CAPERS NEARSHORE 1100   47     320/ 12/ 16   N/A
FRIPP NEARSHORE  NOT AVBL


STATION/POSITION TIME  TEMP    WIND        PRES    WAVE   SWELL
                       AIR SEA DIR/SP/G            HT/PER HT/PER/DIR
                 (UTC) (F)     (DEG/KT/KT) (MB)    (FT/S) (FT/S/D)
5E ST. MARYS GA  1121      61                N/A     3/ 3
FRYING PAN BUOY  1150   51 64  320/ 16/ 19 1014.1R   5/ 8   3/140/ 8
BUOY 41025       NOT AVBL
CAPE LOOKOUT NC  1200   43     320/ 13/ 15 1013.5R
BUOY 41002       1150   62 69  290/ 27/ 35 1010.5R  12/ 9
BUOY 41010       1120   66 75  300/ 23/ 29 1015.2R
ST AUGUSTINE FL  1200   48 58  300/  7/  9 1020.4R


$$


USA.gov is the U.S. government's official web portal to all federal, state and local government web resources and services.